Tracking 19145 objects as of 26-Apr-2018
HD Live streaming from Space Station
objects crossing your sky now

SLOSHSAT

Track SLOSHSAT now!
SLOSHSAT is classified as:


NORAD ID: 28544
Int'l Code: 2005-005C
Perigee: 287.2 km
Apogee: 32,805.8 km
Inclination: 7.2 °
Period: 575.5 minutes
Semi major axis: 22917 km
RCS: 0.5011 m2 (medium)
Launch date: February 12, 2005
Source: European Space Agency (ESA)
Launch site: FRENCH GUIANA (FRGUI)
aabbcc
Your satellite tracking list
Your tracking list is empty




NASA's NSSDC Master Catalog

Two Line Element Set (TLE):
1 28544U 05005C   18114.74624213 +.00000264 +00000-0 +19984-3 0  9993
2 28544 007.2128 340.8782 7094709 351.9849 001.0857 02.50236853114586
Source of the keplerian elements: AFSPC